OBJECT E, 62733

Orbit data source: Space-Track

You're viewing an Uncataloged Satellite

Recently launched and/or uncataloged satellites may have evolving metadata. Metadata may include but not limited to: Owner, Maufacturer, Bus, Motor, and Mission.

OBJECT E, 62733 is a Chinese satellite in SSO that was launched on Mon, 20 Jan 2025 UTC via a GUSHENXING 1 launch vehicle from the Jiuquan Satellite Launch Center, China (JSC). Unknown objects in Earth's orbit typically refer to objects detected orbiting the Earth but have not yet been identified or cataloged. These objects could be anything from previously untracked satellites, spent rocket stages, debris from satellite collisions, or even natural meteoroids temporarily captured by Earth's gravity.

Loading next visibility...
Identifier
62733, 2025-013E
Orbit
SSO
Country
Flag of CNCN / PRC
Related business
None
Manufacturer
ZKRG
Mission
Operational Commercial Imaging
Bus & Motor
XINGYUN-01, Unknown motor
Mass
~50 kg wet, ~50 kg dry
Launch date (UTC)
2025-01-20 (8 months ago)
Launch vehicle
GUSHENXING 1
Launch site
Jiuquan Satellite Launch Center, China (JSC)
Object type
Unknown
Shape & HBR
Box + 2 Pan, 2.5 m
Radar Cross Section
5.545 m², Medium (>0.1 m² and < 1m²)

Expand to show TLE details & history
Last TLE update: 7 hours ago

TLE from 7 hours ago
0 OBJECT E
1 62733U 25013E   25261.30262816  .00003289  00000-0  21621-3 0  9993
2 62733  97.6347  66.3348 0008121 222.1412 137.9193 15.08268899 36193
Epoch: 2025-09-18T07:15Z
TLE epoch observation values (Epoch: 2025-09-18T07:15:47.073Z)
Latitude
0.00006°
Longitude
-40.07751°
Altitude
548.731 km
Speed
7.585 km/s
True Right ascension
04h 25m 20s
True Declination
0° 00' 00"
Sunlit
Object was in daylight at epoch
Visualization orbit readout
Latitude
Unknown
Longitude
Unknown
Altitude
Unknown
Speed
Unknown
Apparent Right ascension
Unknown
Apparent Declination
Unknown
Sunlit
N/A
Visualization observer readout
Local Sidereal Time
07:31:31
Azimuth
Unknown
Elevation
Unknown
Doppler factor
Unknown
Orbital elements
Apogee altitude
544.098 km
Perigee altitude
532.864 km
Semi-major axis
6,916.618 km
Eccentricity
0.00081
Inclination
97.6347°
RAAN
66.3348°
Arg. of periapsis
222.1412°
True anomaly
137.98162°
Mean anomaly
137.9193°
Eccentric anomaly
137.95046°
Mean motion
3.77314 °/min
Orbital period
95.41 mins
BSTAR
0.00021621
Loading maneuver chart data...
Computing Atmospheric mass density...
Loading historical data...
Loading historical data...
Loading historical data...
Loading historical data...
Loading historical data...
Loading historical data...
Loading historical data...
Other satellites on launch #13 in the year 2025 (2025-01-20 UTC)

Documentation

Showing up to 5 results
|